星链-31853 (STARLINK-31853 )

导读

STARLINK-31853是美国SpaceX星链星座的卫星,于2024年6月1日发射升空,属于星链项目的扩容卫星。星链计划旨在搭建全球卫星互联网,为全球提供低延迟、高速率的网络覆盖,该卫星入轨后进一步扩充了星链低轨星座的卫星规模,增强了相关区域的通信服务能力。

基本信息
目录编号:
59933
目录名称:
STARLINK-31853
国际标识:
2024-106M
轨道中心:
EARTH
卫星名称:
星链-31853
卫星全名:
星链-31853 (STARLINK-31853 )
卫星状态:
在轨 (已飞行833 天)
发射日期:
2024-06-01 UTC
国别 :
美国 (US)
星等 :
--
该卫星已列入 空间交会检测服务 Space Conjunction Data Service (SCDS) ,当前飞行风险评估等级: 无高风险
轨道信息
数据来源 国际轨道数据 AOE轨道数据
星历时间 2026-09-11T22:09:36+0800
12小时前
查看轨道信息
2026-09-10T13:00:00+0800
1天前
查看轨道信息
半长轴 6861.192km 6861.207km
偏心率 0.0001399 0.000119
轨道倾角 43.003° 43.003°
近地点辐角 278.162° 255.012°
升交点赤经 2.676° 10.482°
平近点角 81.908° 57.946°
近地点 482.095km 482.253km
远地点 484.015km 483.887km
周期 94.267分钟 94.267分钟
每日圈数 15.275783 15.275732
详细信息
固有亮度:
5
最大亮度:
1.5
卫星平台:
Starlink v2.0 mini
覆盖范围:
全球
运营商:
太空探索技术公司
运营商所在国:
美国
制造商(研发单位):
太空探索技术公司
制造商所在国:
美国
使用方式:
暂无
卫星简介
星链(Starlink)计划是由太空探索技术公司(SpaceX)提出的一个巨型低轨卫星互联网星座项目,计划在2019年至2024年间在太空搭建由约1.2万颗卫星组成的“星链”网络,其中1584颗将部署在地球上空550千米处的近地轨道,并从2020年开始工作。该卫星仍在工作。
2D轨道图
3D轨道图
轨道高度分析图
轨道倾角分析图
轨道综合分析图
查看轨道综合分析图
与全量物体交会距离演化趋势
与全量物体交会风险概率演化趋势